Flag for U.S.A. Weather past 2 weeks in Modesto, California, U.S.A.

Now
86 °F

Sunny.


Feels Like: 83 °F
Forecast: 67 / 93 °F
Wind: 13 mph from Northwest

Location: Modesto City-County-Sham Field

Current Time: Jul 31, 2015 at 8:58:36 PM

Latest Report: Jul 31, 2015 at 7:53 PM


Visibility: 10 mi

Pressure: 29.85 "Hg

Humidity: 23%

Dew point: 44 °F

Location of ModestoLocation

Historic Weather in Modesto — Graph

°F

Modesto temperature yesterday

Maximum temperature yesterday: 101 °F (at 3:53 PM)
Minimum temperature yesterday: 72 °F (at 5:53 AM)
Average temperature yesterday: 86 °F

Past Weeks' High & Low Weather Summary

 TemperatureHumidityPressure
High105 °F (Jul 29, 4:53 PM)70% (Jul 23, 5:53 AM)30.08 "Hg (Jul 23, 5:53 AM)
Low60 °F (Jul 24, 4:53 AM)10% (Jul 22, 4:53 PM)29.67 "Hg (Jul 17, 6:53 PM)
Average81 °F38%29.88 "Hg
* Reported Jul 16 7:53 PM — Jul 31 7:53 PM, Modesto, Weather by CustomWeather, © 2015

Note: Actual official high and low records may vary slightly from our data, if they occured in-between our weather recording intervals... More about our weather records

Advertising

Modesto weather history for previous 24 hours

 ConditionsComfort  
Time TempWeatherWind HumidityBarometerVisibility
7:53 PM
Fri, Jul 31
86 °FSunny.13 mph23%29.85 "Hg10 mi
6:53 PM90 °FSunny.17 mph27%29.84 "Hg10 mi
5:53 PM92 °FSunny.16 mph29%29.84 "Hg10 mi
4:53 PM94 °FSunny.16 mph29%29.85 "Hg10 mi
3:53 PM94 °FSunny.13 mph27%29.86 "Hg10 mi
2:53 PM94 °FSunny.14 mph26%29.88 "Hg10 mi
1:53 PM93 °FSunny.10 mph26%29.90 "Hg10 mi
12:53 PM89 °FSunny.13 mph30%29.92 "Hg10 mi
11:53 AM86 °FSunny.12 mph28%29.93 "Hg10 mi
10:53 AM82 °FSunny.13 mph35%29.94 "Hg10 mi
9:53 AM79 °FSunny.9 mph42%29.93 "Hg10 mi
8:53 AM77 °FPassing clouds.8 mph42%29.94 "Hg10 mi
7:53 AM74 °FSunny.6 mph46%29.95 "Hg10 mi
6:53 AM73 °FClear.6 mph46%29.93 "Hg10 mi
5:53 AM73 °FClear.6 mph48%29.91 "Hg10 mi
4:53 AM75 °FClear.3 mph43%29.91 "Hg10 mi
3:53 AM76 °FClear.7 mph40%29.90 "Hg10 mi
2:53 AM78 °FClear.6 mph36%29.91 "Hg10 mi
1:53 AM79 °FClear.6 mph36%29.91 "Hg10 mi
12:53 AM81 °FClear.7 mph33%29.91 "Hg10 mi
11:53 PM
Thu, Jul 30
82 °FClear.6 mph34%29.92 "Hg10 mi
10:53 PM84 °FClear.8 mph32%29.91 "Hg10 mi
9:53 PM87 °FClear.8 mph27%29.89 "Hg10 mi
8:53 PM91 °FSunny.9 mph25%29.88 "Hg10 mi
Weather by CustomWeather, © 2015

See weather overviewHow to use our weather pages